CW4498 Weather Reports


time (UTC)temp
C
wind
direction
speed
KPH
gust
KPH
rain 1hr
cm
rain 24hr
cm
rain mn
cm
humidity
%
barometer
mb
20260831170034 22 151 0.0 4.8 0.00 0.15 0.00 42 1024.2
20260831164523 22 137 1.6 6.4 0.00 0.15 0.00 40 1024.2
20260831163016 22 118 0.0 3.2 0.00 0.15 0.00 42 1024.0
20260831161511 21 165 0.0 1.6 0.00 0.15 0.00 47 1023.9
20260831160008 20 166 0.0 1.6 0.00 0.15 0.00 44 1024.0
20260831154516 20 275 0.0 3.2 0.00 0.15 0.00 47 1023.8
20260831153100 18 125 0.0 0.0 0.00 0.15 0.00 61 1023.8
20260831151609 17 125 0.0 0.0 0.00 0.15 0.00 65 1023.7
20260831150055 17 125 0.0 0.0 0.00 0.15 0.00 66 1023.7
20260831144554 17 125 0.0 1.6 0.00 0.15 0.00 67 1023.8
20260831143050 16 313 0.0 1.6 0.00 0.15 0.00 66 1023.8
20260831141548 15 313 0.0 0.0 0.00 0.15 0.00 66 1023.9
20260831140054 15 313 0.0 0.0 0.00 0.15 0.00 69 1023.9
20260831134547 14 313 0.0 0.0 0.00 0.15 0.00 69 1023.7
20260831133048 14 313 0.0 3.2 0.00 0.15 0.00 68 1023.6
20260831131545 14 110 1.6 4.8 0.00 0.15 0.00 67 1023.5
20260831130049 14 122 0.0 4.8 0.00 0.15 0.00 65 1023.3
20260831124546 14 128 1.6 4.8 0.00 0.15 0.00 63 1023.1
20260831123044 15 159 0.0 4.8 0.00 0.15 0.00 62 1022.7
20260831121545 14 265 0.0 0.0 0.00 0.15 0.00 61 1022.4
20260831120043 14 265 0.0 0.0 0.00 0.15 0.00 60 1022.5
20260831114542 13 120 0.0 0.0 0.00 0.15 0.00 63 1022.6
20260831113040 14 120 0.0 0.0 0.00 0.15 0.00 62 1022.5
20260831111542 14 119 0.0 0.0 0.00 0.15 0.00 64 1022.2
20260831110039 14 120 0.0 1.6 0.00 0.15 0.00 65 1022.3
20260831104555 14 120 0.0 0.0 0.00 0.15 0.00 64 1022.1
20260831103037 14 119 0.0 1.6 0.00 0.15 0.00 64 1022.1
20260831101537 15 120 0.0 3.2 0.00 0.15 0.00 62 1022.1
20260831100045 15 330 0.0 1.6 0.00 0.15 0.00 61 1022.0
20260831094539 15 329 0.0 0.0 0.00 0.15 0.00 62 1022.0
20260831093036 15 331 0.0 0.0 0.00 0.15 0.00 62 1022.0
20260831091536 15 331 0.0 3.2 0.00 0.15 0.00 61 1021.7
20260831090034 16 279 0.0 0.0 0.00 0.15 0.00 59 1021.4
20260831084539 15 346 0.0 8.0 0.00 0.15 0.00 61 1021.5
20260831083040 15 19 0.0 1.6 0.00 0.15 0.00 63 1021.5
20260831081529 15 341 0.0 4.8 0.00 0.15 0.00 64 1021.9
20260831080046 15 343 0.0 4.8 0.00 0.15 0.00 63 1021.8
20260831074529 15 279 0.0 4.8 0.00 0.15 0.00 64 1021.9
20260831073033 15 290 0.0 1.6 0.00 0.15 0.00 62 1022.4
20260831071526 15 290 0.0 1.6 0.00 0.15 0.00 64 1022.4
20260831070028 15 290 0.0 0.0 0.00 0.15 0.00 68 1022.3
20260831064525 15 291 0.0 4.8 0.00 0.15 0.00 69 1022.6
20260831063025 15 117 0.0 0.0 0.00 0.15 0.00 68 1022.7
20260831061520 15 260 0.0 1.6 0.00 0.15 0.00 65 1022.3
20260831060017 15 279 1.6 4.8 0.00 0.15 0.00 69 1022.7
20260831054517 15 23 0.0 1.6 0.03 0.15 0.15 71 1023.2
20260831053016 16 113 3.2 16.1 0.03 0.15 0.15 63 1022.7
20260831051515 15 116 3.2 11.3 0.03 0.15 0.15 68 1023.6
20260831050014 17 147 4.8 12.9 0.05 0.15 0.15 62 1023.4
20260831044519 17 271 9.7 32.2 0.13 0.13 0.13 54 1022.8
20260831043013 16 302 14.5 37.0 0.13 0.13 0.13 60 1022.3
20260831041512 16 30 14.5 33.8 0.13 0.13 0.13 61 1022.7
20260831040009 16 306 16.1 37.0 0.08 0.08 0.08 64 1023.1
20260831034609 19 304 17.7 46.7 0.00 0.00 0.00 46 1022.1
20260831033008 20 325 14.5 30.6 0.00 0.00 0.00 43 1021.3
20260831031515 19 281 20.9 35.4 0.00 0.00 0.00 45 1021.0
20260831030006 20 281 17.7 38.6 0.00 0.00 0.00 44 1020.6
20260831024509 20 275 6.4 32.2 0.00 0.00 0.00 45 1020.6
20260831023004 20 271 9.7 30.6 0.00 0.00 0.00 45 1020.6
20260831021504 17 327 1.6 9.7 0.00 0.00 0.00 53 1020.8
20260831020004 17 360 1.6 8.0 0.00 0.00 0.00 62 1020.8
20260831014501 17 32 1.6 4.8 0.00 0.00 0.00 62 1020.5
20260831013001 17 28 1.6 11.3 0.00 0.00 0.00 62 1019.9
20260831011614 17 313 4.8 9.7 0.00 0.00 0.00 62 1019.6
20260831010100 18 12 3.2 8.0 0.00 0.00 0.00 59 1019.5
20260831004600 17 296 3.2 14.5 0.00 0.00 0.00 61 1019.7
20260831003059 17 345 3.2 16.1 0.00 0.00 0.00 63 1019.9
20260831001606 18 27 1.6 11.3 0.00 0.00 0.00 63 1019.9
20260830234558 18 58 0.0 8.0 0.00 0.00 0.00 63 1019.9
20260830233105 18 96 1.6 8.0 0.00 0.00 0.00 61 1020.3
20260830231607 18 30 1.6 8.0 0.00 0.00 0.00 62 1020.2
20260830230057 19 46 3.2 8.0 0.00 0.00 0.00 58 1020.1
20260830224616 20 355 3.2 9.7 0.00 0.05 0.00 52 1019.8
20260830223057 22 345 0.0 1.6 0.00 0.05 0.00 37 1019.3
20260830221603 22 154 1.6 9.7 0.00 0.05 0.00 37 1019.0
20260830220101 22 253 3.2 11.3 0.00 0.05 0.00 37 1018.7
20260830214559 22 107 3.2 6.4 0.00 0.05 0.00 46 1018.8
20260830213052 22 117 0.0 1.6 0.00 0.05 0.00 45 1018.8
20260830211554 23 112 0.0 1.6 0.00 0.05 0.00 44 1018.5
20260830210100 23 111 0.0 3.2 0.00 0.05 0.00 43 1018.4
20260830204554 23 103 0.0 4.8 0.00 0.05 0.00 44 1018.1
20260830203051 23 66 3.2 9.7 0.00 0.05 0.00 44 1018.3
20260830201550 23 117 4.8 14.5 0.00 0.05 0.00 44 1018.3
20260830200050 23 87 3.2 11.3 0.00 0.05 0.00 42 1018.5
20260830194550 23 134 4.8 12.9 0.00 0.05 0.00 39 1018.4
20260830193050 24 115 4.8 11.3 0.00 0.05 0.00 41 1018.7
20260830191549 24 61 4.8 11.3 0.00 0.05 0.00 39 1018.7
20260830190047 23 107 3.2 11.3 0.00 0.05 0.00 39 1018.8
20260830184543 23 113 1.6 8.0 0.00 0.05 0.00 43 1019.1
20260830183041 22 128 3.2 14.5 0.00 0.05 0.00 42 1019.2
20260830181539 22 108 4.8 8.0 0.00 0.05 0.00 43 1019.3
20260830180042 22 120 0.0 8.0 0.00 0.05 0.00 46 1019.3
20260830174541 22 128 1.6 4.8 0.00 0.05 0.00 45 1019.4
20260830173040 22 113 0.0 4.8 0.00 0.05 0.00 44 1019.6
20260830171534 21 98 0.0 1.6 0.00 0.05 0.00 47 1019.6